Belle Chasse, LA

10:35 PM CST on February 26, 2017 (GMT -0600)
New Orleans Naval Air Station

Weather History for KNBG - October, 2013

Change the Weather History Date:

Friday, October 4, 2013

  Actual Average Record
Temperature  
Mean Temperature 80 °F -  
Max Temperature 89 °F 79 °F 100 °F (2012)
Min Temperature 72 °F 64 °F 50 °F (2011)
Cooling Degree Days 15    
Growing Degree Days 30 (Base 50)    
Moisture  
Dew Point 73 °F    
Average Humidity 79    
Maximum Humidity 93    
Minimum Humidity 61    
Precipitation  
Precipitation 0.00 in - - ()
Sea Level Pressure  
Sea Level Pressure 30.01 in    
Wind  
Wind Speed 8 mph (ESE)    
Max Wind Speed 22 mph    
Max Gust Speed 31 mph    
Visibility 9 miles    
Events Rain    
Averages and records for this station are not official NWS values.
T = Trace of Precipitation, MM = Missing Value Source: NWS Daily Summary

Daily Weather History Graph

Daily Weather History Graph

Search for Another Location

Airport or City:

Trip Planner

Search our weather history database for the weather conditions in past years. The results will help you decide how hot, cold, wet, or windy it might be!

Date:

Astronomy

Oct. 04, 2013 Rise Set
Actual Time 6:55 AM CDT 6:41 PM CDT
Civil Twilight 6:31 AM CDT 7:05 PM CDT
Nautical Twilight 6:03 AM CDT 7:33 PM CDT
Astronomical Twilight 5:36 AM CDT 8:00 PM CDT
Moon 6:30 AM CDT (10/4) 6:27 PM CDT (10/4)
Length of Visible Light 12h 34m
Length of Day
11h 46m
Waning Crescent, 0% of the Moon is Illuminated
Oct 4
Waning Crescent
Oct 4
New
Oct 11
First Quarter
Oct 18
Full
Oct 26
Last Quarter

Hourly Weather History & Observations

Time (CDT) Temp. Heat Index Dew Point Humidity Pressure Visibility Wind Dir Wind Speed Gust Speed Precip Events Conditions
12:55 AM 77.0 °F - 71.1 °F 82% 29.99 in 10.0 mi South 10.4 mph - N/A   Mostly Cloudy
1:55 AM 73.9 °F - 71.1 °F 91% 29.97 in 10.0 mi Calm Calm - N/A   Clear
2:55 AM 73.0 °F - 71.1 °F 93% 29.96 in 10.0 mi Calm Calm - N/A   Clear
4:55 AM 72.0 °F - 69.1 °F 91% 29.97 in 10.0 mi ENE 4.6 mph - N/A   Clear
5:55 AM 73.9 °F - 72.0 °F 93% 29.99 in 10.0 mi East 4.6 mph - N/A   Scattered Clouds
6:55 AM 73.0 °F - 71.1 °F 93% 30.00 in 10.0 mi East 4.6 mph - N/A   Scattered Clouds
7:55 AM 79.0 °F - 73.9 °F 84% 30.01 in 10.0 mi ESE 5.8 mph - N/A   Partly Cloudy
8:55 AM 82.0 °F 87.9 °F 73.9 °F 76% 30.02 in 10.0 mi ESE 8.1 mph - N/A   Scattered Clouds
9:55 AM 84.0 °F 90.2 °F 73.0 °F 69% 30.03 in 10.0 mi ESE 11.5 mph 20.7 mph N/A   Scattered Clouds
10:55 AM 86.0 °F 92.2 °F 72.0 °F 63% 30.03 in 10.0 mi ESE 10.4 mph 19.6 mph N/A   Scattered Clouds
11:55 AM 88.0 °F 95.6 °F 73.0 °F 61% 30.04 in 10.0 mi SE 10.4 mph - N/A   Mostly Cloudy
12:55 PM 82.9 °F 88.8 °F 73.0 °F 72% 30.02 in 10.0 mi South 9.2 mph 20.7 mph 0.00 in Rain Light Rain
1:00 PM 84.2 °F 90.9 °F 73.4 °F 70% 30.02 in 10.0 mi SSE 11.5 mph - 0.00 in   Mostly Cloudy
1:12 PM 80.6 °F 84.6 °F 71.6 °F 74% 30.03 in 10.0 mi SSE 21.9 mph 31.1 mph 0.00 in Rain Light Rain
1:17 PM 78.8 °F - 73.4 °F 83% 30.03 in 3.0 mi SSE 16.1 mph 31.1 mph 0.00 in Rain Light Rain
1:25 PM 77.0 °F - 73.4 °F 89% 30.03 in 5.0 mi SE 10.4 mph 19.6 mph 0.00 in Rain Light Rain
1:49 PM 80.6 °F 86.2 °F 75.2 °F 84% 30.01 in 7.0 mi South 13.8 mph - 0.00 in   Mostly Cloudy
1:55 PM 81.0 °F 86.7 °F 75.0 °F 82% 30.01 in 7.0 mi SSE 15.0 mph 20.7 mph 0.00 in   Mostly Cloudy
2:55 PM 81.0 °F 85.2 °F 72.0 °F 74% 30.01 in 10.0 mi SE 12.7 mph 18.4 mph N/A   Overcast
3:55 PM 82.9 °F 88.0 °F 72.0 °F 69% 29.99 in 10.0 mi SE 8.1 mph - N/A   Mostly Cloudy
4:55 PM 82.9 °F 88.0 °F 72.0 °F 69% 29.99 in 10.0 mi ESE 6.9 mph - N/A   Scattered Clouds
5:55 PM 82.9 °F 87.5 °F 71.1 °F 67% 29.99 in 10.0 mi ESE 6.9 mph - N/A   Scattered Clouds
6:55 PM 81.0 °F 84.9 °F 71.1 °F 72% 30.00 in 10.0 mi East 4.6 mph - N/A   Scattered Clouds
7:55 PM 78.1 °F - 73.0 °F 84% 30.00 in 10.0 mi East 5.8 mph - N/A   Scattered Clouds
8:55 PM 78.1 °F - 73.0 °F 84% 30.02 in 10.0 mi East 5.8 mph - N/A   Partly Cloudy
9:55 PM 78.1 °F - 73.0 °F 84% 30.02 in 10.0 mi East 4.6 mph - N/A   Scattered Clouds
10:55 PM 77.0 °F - 73.9 °F 90% 30.02 in 10.0 mi East 4.6 mph - N/A   Scattered Clouds
11:55 PM 80.1 °F 84.5 °F 73.9 °F 81% 30.00 in 10.0 mi East 6.9 mph - N/A   Clear